Regional Weather Roundup
Issued by NWS

Home | Current Version | Previous Version | Text Only | Print | Product List | Glossary Off
Versions: 1 2 3 4 5 6 7 8 9 10 11 12 13 14 15 16 17 18 19 20 21 22 23 24 25 26 27 28 29 30 31 32 33 34 35 36 37 38 39 40 41 42 43 44 45 46 47 48 49 50

000
ASUS43 KOAX 301502
RWRNE

WEATHER ROUNDUP FOR NEBRASKA
NATIONAL WEATHER SERVICE OMAHA NE
1000 AM CDT SAT AUG 30 2014

NOTES: SATELLITE DATA IS BEING USED TO AUGMENT CLOUD COVER ABOVE
       12000 FEET.
       "FAIR" INDICATES FEW OR NO CLOUDS BELOW 12,000 FEET WITH NO
       SIGNIFICANT WEATHER AND/OR OBSTRUCTIONS TO VISIBILITY.

  * THESE STATIONS DO NOT REPORT WEATHER SUCH AS RAIN...SNOW OR FOG.

NEZ001>004-019>022-054>056-301600-
NEBRASKA PANHANDLE

CITY           SKY/WX    TMP DP  RH WIND       PRES   REMARKS
SCOTTSBLUFF    SUNNY     68  56  65 SE9       29.98F
ALLIANCE       SUNNY     68  58  70 S14       29.98F
CHADRON        SUNNY     73  56  54 S12       29.90F
KIMBALL        SUNNY     68  55  62 SW9       30.03F
SIDNEY         SUNNY     68  56  65 S14       30.05S
$$

NEZ057>060-069>072-079>082-301600-
SOUTHWEST NEBRASKA

CITY           SKY/WX    TMP DP  RH WIND       PRES   REMARKS
NORTH PLATTE   SUNNY     66  59  78 E8        30.02S
IMPERIAL       SUNNY     67  59  75 SE9       30.03F
LEXINGTON      SUNNY     67  62  83 E7        30.01S
MCCOOK         SUNNY     67  60  78 E5        30.02S
OGALLALA       SUNNY     67  59  77 S8        30.02S
$$

NEZ005>010-023>029-035>040-094-301600-
NORTH CENTRAL NEBRASKA

CITY           SKY/WX    TMP DP  RH WIND       PRES   REMARKS
VALENTINE      MOSUNNY   60  58  92 SE7       30.00F
AINSWORTH      MOSUNNY   61  61 100 CALM      30.01S
BROKEN BOW     SUNNY     67  61  81 E6        30.00F
O`NEILL        MOSUNNY   64  59  83 CALM      30.00S
ORD            CLOUDY    61  58  90 CALM      30.00S
THEDFORD       SUNNY     66  60  80 SE9       30.02S
$$

NEZ041-046>049-061>064-073>077-083>087-301600-
SOUTH CENTRAL NEBRASKA

CITY           SKY/WX    TMP DP  RH WIND       PRES   REMARKS
GRAND ISLAND   SUNNY     69  61  75 NE6       30.00S
AURORA         SUNNY     67  63  85 N6        29.99S
HASTINGS       SUNNY     69  60  73 E5        30.00S
HEBRON         SUNNY     71  63  75 CALM      29.98F
HOLDREGE       SUNNY     67  62  83 E7        30.01R
KEARNEY *      SUNNY     68  61  77 NE7       30.01S
$$

NEZ011>018-030>034-042>045-301600-
NORTHEAST NEBRASKA

CITY           SKY/WX    TMP DP  RH WIND       PRES   REMARKS
NORFOLK        MOSUNNY   65  58  78 NW7       29.97S
ALBION         MOSUNNY   65  59  82 CALM      29.99S
BLAIR          CLOUDY    66  65  94 NW8       29.95S FOG
FREMONT        PTSUNNY   68  64  89 NW3       29.96S
TEKAMAH        CLOUDY    67  64  90 NW8       29.95R
WAYNE          PTSUNNY   65  60  84 NW8       29.97S
$$

NEZ050>053-065>068-078-088>093-301600-
SOUTHEAST NEBRASKA

CITY           SKY/WX    TMP DP  RH WIND       PRES   REMARKS
LINCOLN        SUNNY     72  65  78 N6        29.97R
OMAHA EPPLEY   CLOUDY    66  64  93 NW7       29.95R FOG
BEATRICE       SUNNY     71  66  85 CALM      29.97S
FALLS CITY     SUNNY     74  67  78 NW7       29.94R
NEBRASKA CITY  SUNNY     71  69  93 NW3       29.95S
PLATTSMOUTH    CLOUDY    69  65  88 NW7       29.96R
$$

NEZ044-045-051>053-067-301600-
OMAHA AREA

CITY           SKY/WX    TMP DP  RH WIND       PRES   REMARKS
OMAHA EPPLEY   CLOUDY    66  64  93 NW7       29.95R FOG
BLAIR          CLOUDY    66  65  94 NW8       29.95S FOG
FREMONT        PTSUNNY   68  64  89 NW3       29.96S
MILLARD        CLOUDY    66  64  94 NW6       29.95R FOG
PLATTSMOUTH    CLOUDY    69  65  88 NW7       29.96R
WAHOO          FAIR      68  63  82 N6        29.96R
$$


USA.gov is the U.S. government's official web portal to all federal, state and local government web resources and services.